Theta_e
346 354 355 356 353 350 350 353 357 358 356 342 340 350 357 363 362 365 365 365 364 362 359 357 354 353 358 355 357 357 353 356 355 348 348 357 355 354 356 355 355 354 354 355 356 355 354 355 353 352 350 351 351 351 350 350 350 350 350 351 350 347 345 346 350 350 350 350 349 349 348 349 349 349 350 350 351 353 354 354 354 354 354 353 353 353 353 353 353 354 354 354 353 354 353 351 352
352 356 355 355 349 349 353 357 357 350 344 336 341 355 358 364 362 365 365 365 365 360 358 356 354 356 358 355 355 356 356 355 356 354 354 355 353 354 355 355 355 354 354 354 356 355 356 355 353 352 350 351 351 351 351 351 350 350 351 351 350 347 347 349 350 351 351 350 349 348 348 347 348 349 350 349 350 353 353 353 353 353 353 353 353 352 353 353 354 354 353 353 353 353 354 353 354
353 355 354 352 349 351 356 359 352 341 339 339 349 361 360 363 364 365 364 363 363 358 357 356 355 356 355 354 354 358 360 354 354 353 353 354 354 354 355 356 355 355 354 354 355 355 357 355 353 351 348 350 351 351 352 351 350 350 351 351 350 346 348 353 352 352 351 350 350 349 348 347 348 349 350 350 350 352 353 353 353 353 354 353 353 353 353 353 353 353 352 352 352 352 351 352 353
353 354 353 352 352 354 359 360 353 342 338 340 350 360 360 363 365 364 362 361 360 357 358 356 355 354 353 356 355 358 360 357 356 354 354 355 354 354 355 356 355 355 354 354 355 355 357 354 352 351 348 349 351 351 352 352 350 350 351 352 351 346 346 353 354 352 351 351 352 350 350 349 349 349 349 350 350 352 353 353 354 354 354 353 353 354 353 353 353 353 352 352 352 351 350 351 352
354 354 352 354 357 358 360 358 351 345 341 345 352 358 359 361 364 362 361 360 359 358 357 354 356 354 354 357 357 359 360 358 357 355 356 355 355 354 355 356 356 355 354 355 355 355 357 354 353 352 350 350 352 351 351 352 350 350 352 352 352 347 344 351 354 352 351 351 352 352 352 352 351 350 349 349 349 351 352 353 353 353 353 352 352 353 352 352 353 352 352 352 352 352 351 351 352
354 355 353 355 358 357 355 347 345 346 351 359 360 361 359 359 363 361 361 361 360 359 356 356 358 356 356 356 356 357 358 359 358 356 357 356 355 355 356 356 356 356 355 355 354 356 356 355 355 354 352 352 351 351 352 352 350 349 351 352 352 349 345 350 354 353 352 352 353 353 352 352 351 351 350 350 350 350 351 351 351 351 351 351 351 352 351 351 352 352 352 352 351 351 350 350 351
353 355 354 356 358 357 350 342 343 348 355 365 363 361 359 358 361 360 361 362 361 360 357 358 357 355 359 357 355 357 358 360 359 356 356 355 354 355 357 356 356 356 356 356 355 357 356 355 355 354 353 352 351 352 353 351 350 349 349 350 350 349 346 348 354 353 352 352 352 352 351 352 351 351 350 350 350 350 350 351 350 350 349 349 351 352 351 350 351 352 353 352 350 349 350 349 349
353 355 357 359 358 354 347 343 348 352 356 361 362 360 360 360 359 361 362 361 363 361 359 359 356 358 361 357 359 359 359 360 358 357 355 355 355 356 356 356 356 356 356 356 356 357 355 354 355 354 353 351 352 352 353 351 350 350 349 350 350 350 347 345 352 354 351 350 351 351 352 352 351 351 351 350 350 350 350 350 349 349 348 348 350 351 350 350 350 351 351 351 350 349 351 350 348
356 358 359 358 353 347 343 344 350 356 360 360 361 360 361 361 359 361 363 362 363 362 361 360 357 361 362 358 360 358 359 360 358 356 355 355 355 355 356 356 356 356 356 356 356 357 357 355 354 354 352 351 352 352 352 351 351 350 349 350 350 350 348 342 347 353 351 351 351 351 353 352 351 351 350 350 350 350 350 349 348 348 347 345 348 351 351 350 350 350 349 350 350 349 350 349 349
359 359 360 357 346 339 335 340 349 356 361 361 362 361 361 359 358 361 364 364 363 362 361 359 358 361 360 360 360 358 359 359 357 356 355 355 355 355 356 355 355 356 356 356 355 357 358 356 355 353 352 351 352 353 352 351 351 351 350 351 351 351 349 341 344 351 351 352 352 351 353 351 351 350 349 350 349 349 349 349 348 347 346 345 347 350 351 350 350 350 350 349 349 348 348 348 349
360 359 360 352 337 332 331 338 348 357 361 360 363 361 361 359 359 361 363 363 362 362 361 360 360 360 360 360 358 358 359 359 357 355 354 354 355 355 356 355 355 356 355 356 356 356 358 356 355 354 353 353 351 352 352 350 349 350 351 352 352 351 350 343 343 351 351 351 352 351 352 350 350 349 348 350 349 350 349 349 349 349 349 348 348 349 350 349 349 349 349 349 348 348 347 347 349
359 357 360 346 333 336 338 341 348 359 361 361 363 362 361 359 361 362 362 363 361 362 361 362 362 359 361 360 357 358 359 359 357 355 353 354 354 355 355 356 355 355 355 356 356 356 357 356 355 353 354 354 352 352 353 351 347 348 352 353 353 351 351 346 343 350 352 351 352 352 352 350 350 350 349 349 349 350 349 349 351 350 349 349 349 349 349 348 347 347 347 347 347 348 347 346 347
355 356 357 343 340 347 344 344 351 358 359 361 364 362 360 359 362 361 362 363 361 363 361 360 361 360 363 360 358 358 359 359 357 354 353 353 354 354 355 356 355 355 355 355 357 356 357 357 356 355 354 354 352 352 353 352 349 347 350 352 352 350 351 349 341 347 351 351 352 352 352 350 351 352 351 350 349 350 349 350 350 350 350 350 349 350 351 348 346 346 346 347 346 347 347 346 346
355 355 357 348 347 350 346 345 349 350 352 363 365 361 361 360 361 359 361 363 362 363 360 359 359 361 362 358 358 357 358 358 356 354 353 353 353 354 355 356 356 355 355 355 356 357 358 357 357 357 355 355 354 353 354 354 351 347 347 349 350 348 350 349 341 347 351 350 352 352 353 351 350 354 354 352 351 350 349 349 349 349 349 350 349 350 351 349 347 346 347 347 347 347 347 346 345
354 355 359 350 344 346 346 347 349 347 350 363 364 361 362 359 359 359 361 363 363 360 357 360 358 361 360 358 359 356 358 358 356 354 352 352 353 354 355 356 356 356 356 355 356 357 357 357 357 358 357 357 357 356 356 354 351 350 349 347 347 346 348 348 342 346 352 351 351 351 352 350 349 353 355 354 353 351 351 350 349 349 350 350 349 349 349 349 347 346 346 347 347 347 347 346 346
352 356 359 346 338 340 344 351 352 348 352 363 362 362 364 359 358 359 359 360 361 358 358 361 358 361 360 358 360 357 358 358 356 355 352 353 354 354 354 355 356 356 356 355 356 357 357 357 358 358 358 359 358 357 357 356 353 351 350 349 349 347 346 346 342 344 349 349 350 351 349 350 353 354 354 354 353 351 352 352 350 350 350 350 350 350 349 348 348 347 346 345 346 346 346 347 347
351 356 353 338 336 340 345 354 350 347 356 363 363 363 365 362 359 359 358 358 360 358 358 359 357 358 358 358 358 357 358 357 356 356 353 353 354 353 353 355 355 355 356 355 356 357 357 357 358 358 359 358 358 357 357 357 355 352 352 352 351 349 346 344 343 346 351 351 351 351 350 353 356 356 354 354 353 352 351 353 352 350 351 351 351 352 351 349 347 348 347 345 345 344 345 348 348
353 356 345 333 340 346 349 356 350 352 360 363 364 363 363 363 361 358 358 359 359 360 359 358 357 357 358 357 357 357 358 357 357 356 353 353 352 352 353 354 355 355 355 355 355 356 357 358 358 358 358 358 357 357 356 357 356 354 355 355 353 352 351 349 351 353 354 355 352 352 353 355 355 355 356 355 355 354 351 351 349 348 349 349 350 352 351 350 348 348 348 347 346 344 347 352 350
353 354 343 337 348 353 353 355 352 357 361 362 364 362 362 362 359 358 360 362 361 362 361 359 358 357 358 357 357 357 358 357 356 355 354 352 352 351 351 353 354 355 355 355 354 355 356 358 358 358 358 358 357 356 356 356 356 356 356 356 355 354 354 354 355 355 355 355 354 354 354 354 354 355 355 351 348 352 353 350 347 347 348 349 350 351 352 351 349 348 349 347 346 347 350 353 352
351 351 346 344 353 355 355 355 354 356 358 362 362 360 362 360 359 359 360 361 360 363 362 361 361 359 358 357 358 358 358 358 357 356 354 352 353 351 351 352 352 353 354 354 354 354 356 357 358 357 357 357 356 355 355 355 355 356 355 355 355 354 354 354 354 355 354 355 354 354 352 352 354 354 353 350 349 353 356 353 351 351 352 352 352 352 353 353 351 350 350 348 350 351 353 353 352
349 348 347 346 351 354 355 354 355 355 356 360 358 359 361 359 360 360 361 362 360 360 360 360 361 359 358 356 358 359 358 358 358 357 356 353 353 352 352 352 351 351 352 353 354 355 355 357 357 357 356 356 355 355 355 354 355 355 354 355 355 353 353 353 353 353 354 354 354 353 352 351 352 352 353 354 354 355 354 354 355 354 355 355 354 353 354 355 353 353 353 353 354 354 353 353 353
348 347 347 348 349 352 355 353 355 355 356 357 357 360 360 359 359 358 360 363 361 359 358 358 358 357 357 357 358 361 359 357 358 358 356 354 353 353 352 352 351 351 352 353 354 355 355 357 357 357 356 355 355 355 354 354 355 355 354 354 354 353 353 352 352 351 352 354 353 352 351 350 349 349 351 353 354 353 352 353 353 354 356 357 357 355 354 355 354 354 356 355 355 355 353 354 353
348 349 349 350 349 352 354 354 355 355 356 357 358 359 358 358 359 357 358 360 358 356 356 356 355 356 356 357 357 359 359 357 357 357 356 355 354 353 353 352 353 352 352 352 353 354 355 355 357 357 357 356 355 355 356 356 356 356 354 354 354 353 353 351 350 349 351 354 353 352 350 348 347 346 347 349 351 351 351 351 351 353 354 354 357 357 356 356 355 355 357 356 356 356 354 353 354
348 351 352 350 349 351 353 355 357 356 358 359 358 357 357 359 358 357 358 357 355 353 354 354 356 357 357 356 357 358 358 358 357 356 356 356 355 354 354 353 353 353 353 352 352 353 354 355 356 357 358 357 356 356 357 358 356 356 355 354 354 353 353 351 350 351 351 353 353 353 350 346 344 344 344 345 346 347 348 349 350 352 351 351 353 356 357 356 357 358 358 358 357 357 356 355 354
348 353 352 351 351 352 353 355 358 359 359 359 358 358 357 357 358 358 358 357 354 353 352 353 356 356 356 356 356 357 356 358 358 356 356 355 355 356 355 355 353 353 353 352 352 352 352 353 355 356 357 357 357 357 357 358 357 357 356 355 354 354 354 352 351 352 351 351 352 353 352 346 343 342 342 343 343 344 346 348 350 351 352 350 350 354 357 356 357 359 359 359 358 357 357 356 355
348 353 351 351 352 351 354 355 358 359 359 359 359 359 357 356 357 358 357 356 353 352 351 352 354 354 355 354 353 354 353 356 355 355 357 356 356 356 357 356 355 353 353 353 352 352 352 351 352 353 354 357 357 357 357 359 358 357 356 354 354 354 353 353 353 352 350 350 349 352 354 350 344 341 341 343 344 344 346 350 352 351 351 350 348 351 355 356 356 357 359 359 358 358 357 356 356
348 352 351 351 352 351 352 353 356 358 358 359 359 359 358 355 357 357 356 356 354 352 351 351 353 353 353 353 352 352 353 354 352 353 354 353 355 356 357 357 357 356 354 353 353 352 352 350 350 351 353 356 356 357 358 358 358 356 356 354 354 354 353 353 353 351 350 350 349 353 355 352 347 342 341 344 345 346 349 352 352 351 351 351 350 349 353 356 356 356 357 357 358 358 358 357 356
350 351 351 351 350 351 352 353 355 358 358 357 358 359 358 355 355 358 355 354 355 354 353 352 353 353 353 353 354 352 351 354 353 353 354 353 353 355 356 357 357 357 355 354 353 352 352 351 351 352 353 355 356 356 357 357 356 355 355 354 353 353 354 353 352 351 351 350 351 353 353 352 350 346 345 347 347 349 352 353 352 352 351 350 350 349 352 356 356 356 356 356 357 357 357 357 356
350 350 352 352 352 353 352 353 354 357 358 356 358 356 356 359 356 356 355 354 356 355 355 354 352 353 352 353 353 352 352 353 354 354 355 353 353 354 355 356 356 356 356 354 354 353 352 352 353 354 353 355 355 354 354 354 354 354 354 353 353 354 354 353 352 352 351 351 352 353 353 354 353 350 350 352 353 354 354 354 353 352 351 351 351 350 352 355 356 356 356 356 355 356 356 356 356
350 349 350 349 349 353 354 354 354 357 357 357 356 345 345 359 356 355 356 355 357 356 355 353 352 353 352 352 353 352 353 353 355 354 354 354 353 354 355 356 356 356 356 355 354 354 353 354 355 356 355 355 355 354 353 354 353 354 353 353 355 355 355 354 354 354 354 354 355 355 355 356 356 355 356 356 357 357 355 355 353 352 352 352 352 352 352 353 354 355 356 356 355 355 355 355 355
350 346 347 343 334 343 354 351 354 359 355 357 357 339 340 358 357 355 357 355 357 356 355 354 353 354 352 353 352 352 353 354 356 355 355 355 354 354 354 355 356 355 355 354 355 355 355 357 357 357 357 356 356 356 356 356 355 355 355 356 357 357 357 357 357 356 356 356 357 356 353 354 354 354 355 357 358 358 355 354 353 352 353 354 353 352 352 352 353 353 354 355 355 354 354 355 355
347 336 331 332 328 339 357 349 351 359 354 356 357 341 342 356 356 355 356 354 358 357 355 355 354 355 354 354 353 352 353 355 356 355 355 355 355 355 355 356 356 355 355 355 355 356 356 357 357 358 358 357 358 358 359 358 357 358 357 358 358 360 360 358 357 356 356 357 357 356 353 352 352 353 354 354 356 358 356 355 354 353 354 355 354 353 354 353 353 353 353 354 353 353 354 355 354
342 331 320 322 323 330 347 350 350 354 354 356 354 346 347 355 355 356 356 355 357 356 355 356 354 354 355 354 353 353 353 355 356 356 356 355 355 355 354 356 356 355 355 356 357 357 357 357 357 358 357 359 359 360 362 359 357 359 359 359 359 358 358 357 356 356 356 356 356 356 355 352 353 355 354 354 355 356 354 353 352 352 352 353 354 353 353 353 353 353 354 355 353 353 353 354 354
327 330 320 322 326 323 333 347 352 350 353 357 355 351 351 354 354 355 356 356 356 356 355 355 354 354 354 354 353 353 354 354 355 357 356 355 354 354 354 355 355 356 355 355 357 358 359 358 358 358 358 360 360 360 362 360 359 360 359 359 358 356 357 356 356 356 356 355 355 354 352 350 351 353 353 354 355 354 352 351 351 351 350 350 353 352 352 353 353 352 353 356 356 354 353 353 354
318 321 318 319 325 324 327 340 350 350 351 355 355 353 353 354 355 354 355 355 354 355 355 354 354 353 354 355 354 354 355 354 354 356 356 355 354 353 353 354 355 356 355 355 356 356 358 359 360 360 358 361 361 360 360 359 360 360 359 359 358 357 357 356 356 356 356 355 355 353 350 349 350 352 354 354 355 353 352 352 352 352 351 351 352 351 351 352 352 353 353 354 355 355 355 354 355
325 323 321 318 319 322 329 339 347 350 351 355 355 352 353 355 355 355 353 354 354 355 356 355 354 354 353 354 354 354 354 353 354 354 355 355 355 353 353 353 354 355 355 355 354 355 356 358 359 359 358 360 361 360 359 359 360 360 360 359 358 357 357 356 356 356 355 354 354 353 352 351 351 353 354 354 354 353 352 353 353 354 353 354 354 353 352 351 352 353 354 354 354 354 355 355 355
332 328 325 322 319 321 332 343 345 348 348 351 356 352 353 354 354 356 354 354 356 355 356 355 355 355 354 354 354 354 354 354 355 354 354 354 354 353 353 353 354 355 355 354 354 354 356 357 358 358 358 360 360 360 360 360 360 359 358 358 358 357 356 356 356 356 355 355 354 355 355 354 354 353 353 353 353 353 352 353 353 354 354 354 354 354 353 352 351 352 353 355 355 353 353 354 355
332 328 323 321 320 322 333 344 345 349 347 346 355 353 352 355 353 355 355 355 356 355 355 355 354 356 355 355 355 355 355 355 355 354 354 354 354 353 353 353 354 354 355 354 354 355 356 357 357 359 358 358 359 360 360 359 358 357 356 356 358 357 355 355 355 355 355 355 354 354 354 354 354 353 353 353 353 353 354 353 354 354 354 354 354 354 353 353 354 352 352 354 354 353 353 352 354
331 329 322 318 320 324 334 348 350 349 344 345 355 352 349 356 353 354 357 355 355 353 355 355 354 356 356 355 355 355 356 356 354 354 354 354 354 354 354 354 354 354 355 355 355 356 356 356 356 357 358 357 357 358 359 358 357 358 356 356 356 355 354 354 354 354 354 353 353 352 353 353 354 353 353 353 352 353 353 353 354 355 354 353 353 354 353 354 354 352 351 350 350 352 353 352 354
332 328 319 316 322 320 322 339 353 351 343 343 353 350 348 356 354 355 357 354 355 354 354 355 354 356 356 355 355 355 356 357 355 354 355 356 355 355 354 354 355 355 356 356 356 356 356 356 355 356 357 357 357 358 358 357 357 357 356 355 354 353 353 353 352 352 352 352 352 352 353 353 354 353 353 353 353 354 353 354 355 354 354 353 353 353 353 354 354 353 351 348 348 352 353 352 353
329 329 322 318 323 321 319 336 350 348 345 349 350 339 340 354 356 357 357 354 357 356 355 357 355 356 356 355 356 355 355 356 356 355 355 357 356 356 355 355 355 355 356 356 356 356 355 355 356 356 357 358 358 357 357 357 356 355 354 354 354 353 353 352 352 352 352 352 352 352 353 353 353 354 354 353 354 354 354 356 355 354 353 353 353 353 353 354 353 353 353 351 351 353 353 352 353
322 327 328 323 324 325 324 337 339 328 331 349 346 325 326 348 356 356 358 357 358 357 356 357 356 357 358 358 357 356 356 355 356 356 356 357 357 357 357 356 356 355 355 356 355 355 355 356 357 356 358 357 357 356 356 356 355 354 354 354 354 354 354 353 353 353 352 352 353 353 351 351 353 354 354 354 354 354 355 356 356 354 354 353 352 352 353 354 354 353 353 353 353 354 354 353 353
316 322 328 327 327 325 323 332 329 317 322 345 346 324 320 334 348 356 359 358 359 358 356 355 356 358 358 358 357 356 356 355 356 358 358 359 358 358 359 358 357 357 357 357 357 356 356 357 356 357 357 357 356 356 355 355 355 354 353 353 353 353 353 354 354 354 354 353 353 353 352 352 354 354 354 354 354 355 355 356 356 355 354 353 353 352 353 354 354 353 353 354 354 354 355 354 354
316 326 330 327 327 327 326 329 325 322 328 337 342 334 320 321 339 356 357 357 359 359 358 356 357 358 357 357 356 356 356 355 357 358 358 360 360 359 359 358 358 358 358 358 358 357 358 358 356 357 358 357 356 355 354 354 354 353 353 352 352 352 353 354 354 354 353 352 351 351 351 352 353 353 353 354 354 355 355 355 355 355 355 355 354 353 353 354 353 354 354 355 355 355 355 354 354
323 332 331 330 331 330 331 327 324 329 329 321 329 336 320 317 338 358 356 354 357 360 359 357 358 358 357 356 356 356 355 355 357 357 358 360 361 360 360 359 359 359 359 358 358 358 359 358 356 357 357 357 357 355 354 354 354 353 353 353 353 353 353 353 352 351 350 350 349 349 349 349 349 350 351 352 353 354 354 354 355 355 356 355 355 354 354 354 354 354 355 355 355 354 353 353 352
329 333 331 334 335 333 334 330 326 329 325 316 322 330 319 316 331 347 350 348 352 359 358 356 358 358 356 356 355 355 355 355 356 356 359 360 360 359 359 360 359 359 358 357 358 358 357 357 357 357 358 357 357 356 354 354 354 354 354 353 352 352 351 350 349 348 347 347 347 347 347 347 346 346 347 349 350 351 351 352 353 353 353 354 355 355 354 355 355 355 355 355 355 354 353 352 352
330 332 333 333 334 336 336 332 330 325 320 318 322 327 323 317 322 334 343 346 347 355 356 357 359 357 356 356 353 355 354 355 356 355 359 361 359 358 357 358 358 357 358 357 357 357 356 357 357 357 357 356 356 355 354 354 353 353 352 351 350 349 348 348 346 346 345 345 345 345 345 345 344 343 344 346 347 347 349 350 350 351 351 352 353 354 353 354 354 354 355 355 355 354 353 352 353
330 332 330 324 325 331 328 327 329 320 315 321 326 328 325 318 321 331 342 347 346 350 355 357 358 356 357 356 353 354 354 354 356 355 356 358 358 357 355 356 356 356 355 355 354 354 354 354 353 354 354 353 353 353 353 352 351 351 349 349 348 348 346 345 345 345 345 344 344 345 345 345 345 343 342 343 344 345 346 348 348 349 350 351 351 352 353 353 353 353 353 354 354 354 354 353 354
330 329 324 316 315 319 319 319 320 315 316 325 329 329 325 319 326 337 344 348 347 348 351 354 355 355 356 356 354 353 353 353 355 355 355 356 357 356 354 354 354 354 353 351 351 351 351 351 351 351 350 351 351 350 350 350 349 348 348 348 347 346 345 345 345 345 345 345 345 345 346 346 345 344 342 341 343 344 345 346 347 347 348 348 349 350 351 352 353 352 352 352 353 353 353 353 354
328 324 318 313 313 314 314 315 314 313 318 327 332 332 324 319 331 346 347 348 349 348 348 350 353 354 355 356 354 352 353 353 354 355 354 354 355 355 353 353 352 352 351 350 350 350 350 350 350 350 349 349 349 348 347 347 347 346 346 346 345 345 345 345 345 344 344 345 344 345 344 343 343 343 341 341 343 344 344 345 345 345 346 347 348 348 349 350 351 352 351 351 351 351 352 352 353
328 329 324 316 313 313 313 313 312 312 316 324 331 328 318 317 335 351 348 348 348 346 348 349 351 354 354 354 354 352 353 353 353 354 352 353 355 354 353 352 351 350 349 349 349 348 348 348 347 348 348 348 347 345 345 345 345 345 344 344 344 344 343 344 344 344 343 344 343 343 344 343 342 342 342 343 343 344 344 344 344 344 344 345 346 347 347 348 349 350 350 350 350 350 351 351 351
328 333 326 317 317 317 313 313 314 312 313 318 322 322 320 329 344 350 346 348 348 347 350 350 351 354 354 354 354 352 352 353 352 352 351 353 355 354 353 352 350 349 347 347 347 346 344 345 345 345 346 346 345 344 344 343 343 344 344 344 343 343 343 343 344 344 343 344 343 343 343 342 341 341 342 342 342 343 343 343 343 342 343 343 344 345 345 345 347 347 348 348 349 349 350 351 350
327 326 319 323 330 324 314 312 316 315 312 315 316 316 322 332 343 349 349 349 351 350 350 352 354 355 355 355 354 352 352 353 351 350 351 353 355 354 353 351 348 347 346 346 346 345 344 344 344 344 345 345 345 343 343 343 343 344 344 344 343 343 343 342 342 343 344 344 343 343 343 341 340 340 340 340 340 340 341 341 342 341 341 342 342 343 343 343 345 345 345 346 347 347 348 349 350
326 321 321 329 333 328 320 314 315 314 312 313 313 313 315 319 330 349 354 351 353 352 352 355 357 356 356 356 354 352 352 352 350 350 352 354 354 353 352 349 347 346 345 345 346 345 345 344 343 343 344 344 344 343 342 343 344 344 344 344 343 342 342 342 342 343 343 343 343 342 341 340 339 339 339 339 339 338 339 340 340 341 341 342 342 342 341 342 343 344 344 345 345 346 347 347 348
329 325 329 329 319 316 318 314 313 312 312 312 312 313 315 315 324 340 349 351 354 353 353 356 357 357 355 354 354 353 352 350 349 350 351 353 353 353 352 348 346 346 345 344 344 344 344 344 342 342 342 342 343 343 342 343 343 343 343 343 342 342 342 342 343 343 343 342 341 340 339 339 338 338 339 339 338 337 337 338 338 339 340 340 341 342 341 341 342 343 344 344 344 345 346 347 347
329 328 332 330 320 317 317 316 313 311 312 312 312 313 315 320 329 336 343 351 353 353 355 357 356 355 354 354 353 352 352 350 349 349 351 352 352 351 350 348 347 346 344 342 342 343 343 342 342 342 342 342 343 343 343 343 343 343 343 341 341 342 342 342 343 342 341 340 339 338 337 337 337 337 338 338 338 338 338 339 338 338 338 339 340 341 341 342 342 343 343 343 343 344 345 346 346
323 321 321 323 323 321 319 317 314 312 312 311 313 313 314 325 337 338 343 350 352 353 356 356 355 353 353 354 353 352 351 349 348 349 350 350 350 349 348 347 346 345 344 342 342 343 341 341 342 343 343 343 343 343 343 343 343 343 342 341 340 341 342 342 342 341 340 339 338 338 337 337 337 337 337 338 338 339 339 339 339 338 338 339 340 341 340 341 342 342 343 343 343 344 344 344 344
325 320 319 320 320 317 315 314 314 314 312 310 313 312 315 330 341 340 344 348 350 353 353 354 354 352 352 353 352 352 351 348 346 347 346 347 349 348 346 346 345 345 346 344 343 343 341 341 342 342 343 343 343 343 343 344 343 343 343 342 341 342 342 342 341 340 339 338 337 337 337 337 337 337 337 337 337 337 337 336 337 338 339 340 340 340 340 341 341 342 342 342 343 344 344 343 344
Wind_Speed
13 13 10 7 3 3 4 3 3 4 4 4 2 2 2 3 3 2 5 5 4 5 2 4 9 6 2 3 5 5 5 4 5 3 2 4 9 14 13 18 22 22 20 18 17 18 17 17 16 15 16 15 14 13 12 12 12 12 12 11 10 10 10 10 9 9 10 10 11 11 10 10 10 9 9 9 9 9 9 8 7 7 7 7 7 7 7 7 7 7 6 7 8 9 10 11 11
14 12 9 6 4 2 1 2 3 3 4 4 3 4 1 2 2 2 4 3 4 5 4 6 8 5 3 3 4 2 5 7 8 8 6 8 14 14 16 20 20 21 20 18 17 17 16 17 17 15 15 14 13 12 11 11 12 12 12 11 10 9 10 10 9 10 10 10 10 10 10 10 10 9 9 9 9 9 8 8 7 7 7 7 6 6 6 6 6 5 6 6 6 7 9 10 11
13 11 10 7 4 2 1 2 2 2 3 1 5 4 1 2 4 4 4 4 5 5 6 7 8 4 2 6 3 2 5 6 8 8 8 11 14 13 18 19 19 20 20 19 17 17 16 17 18 16 15 14 12 12 11 10 11 12 12 11 10 9 10 9 9 10 10 10 9 9 10 10 10 9 9 9 8 8 7 7 6 6 6 6 6 6 5 5 5 5 5 5 4 5 6 8 8
11 9 9 6 4 3 2 3 2 3 2 2 3 4 4 2 5 5 4 3 3 5 7 8 7 1 0 5 3 3 5 5 6 7 7 10 12 17 19 19 19 19 18 18 17 17 16 17 18 16 14 13 12 11 10 9 10 11 11 11 9 8 10 10 9 10 9 9 8 9 9 9 9 9 9 8 8 7 7 6 6 6 6 6 5 5 5 5 5 4 4 4 4 4 4 5 6
9 7 6 5 2 1 2 2 1 2 3 4 2 3 3 2 5 6 4 2 1 3 7 8 6 2 1 4 2 2 4 4 5 6 8 11 14 19 19 19 18 17 17 17 17 16 17 18 17 15 14 13 12 11 10 9 9 10 10 9 9 8 9 10 9 9 9 8 8 9 8 9 9 8 8 8 8 7 6 6 6 7 6 6 5 4 5 5 5 5 4 4 3 3 3 4 4
7 5 5 5 2 1 2 1 3 4 4 5 3 2 2 1 5 7 4 3 1 2 7 5 3 4 3 4 3 5 6 2 2 5 9 13 16 18 19 19 17 17 17 16 16 15 17 18 17 15 14 13 13 11 10 9 8 9 9 9 8 7 8 10 8 8 8 8 8 8 8 9 9 8 8 8 8 7 6 6 6 7 7 7 6 6 5 4 5 5 5 4 3 2 2 2 2
5 4 3 4 2 2 2 5 4 4 5 5 3 1 2 2 2 5 4 3 3 3 5 4 3 5 3 2 3 6 6 3 2 5 9 15 17 17 18 17 17 17 16 16 15 15 18 18 17 16 14 13 13 12 10 9 8 8 8 8 7 6 8 9 8 7 7 8 8 7 8 8 8 8 8 8 7 7 7 7 7 7 7 7 7 7 6 5 4 5 5 4 3 2 2 1 1
4 4 2 2 1 1 3 6 5 5 6 5 4 3 2 3 2 3 3 3 2 3 4 4 4 4 3 1 1 5 5 4 3 6 12 17 17 17 16 16 18 17 15 15 14 16 17 16 16 15 14 13 13 12 11 9 9 8 8 7 6 6 7 8 8 7 7 7 7 7 8 8 7 8 9 9 8 8 8 8 7 7 8 7 7 7 6 5 5 5 4 4 4 3 3 1 0
5 4 3 2 2 2 4 5 6 5 6 5 5 4 3 2 2 1 3 4 2 4 4 2 3 3 4 3 2 4 4 5 5 9 14 17 17 16 15 15 17 17 16 15 14 15 15 15 15 14 13 13 12 12 10 9 8 8 8 7 6 6 6 7 7 6 6 7 7 7 8 8 8 8 9 9 9 9 8 8 8 8 7 7 6 6 6 5 5 5 4 4 4 3 3 1 1
5 2 3 3 2 2 4 5 5 4 6 6 6 5 4 3 2 1 3 4 3 5 3 0 3 1 4 3 3 3 3 6 8 11 15 17 16 15 14 14 16 17 16 14 14 14 14 14 14 12 12 12 12 11 10 9 8 8 8 7 6 6 5 6 7 6 6 7 6 7 7 7 8 8 9 8 8 7 7 7 7 7 7 7 6 6 6 5 5 4 4 3 3 3 4 2 1
3 2 2 3 3 4 5 5 5 4 6 4 6 6 4 3 3 2 3 4 3 3 2 1 3 3 3 2 2 3 3 6 9 13 16 17 15 14 14 14 14 15 15 15 14 14 14 13 13 12 11 10 10 9 9 8 8 8 8 6 6 5 5 6 6 6 6 6 6 6 6 7 8 8 8 7 6 6 6 6 6 6 6 6 6 5 5 5 6 5 4 3 3 3 3 3 2
3 2 3 3 5 5 4 4 6 4 5 4 6 6 4 3 2 3 4 5 3 4 2 1 1 2 3 3 2 5 6 7 10 14 17 16 14 14 13 13 13 14 13 15 14 13 13 13 13 12 11 9 8 8 7 7 8 8 7 6 5 5 4 5 5 5 5 5 5 6 6 6 7 7 6 6 7 7 6 6 5 5 5 5 5 5 5 6 6 5 4 3 4 4 2 3 2
3 5 5 4 4 4 4 3 5 3 4 4 5 6 4 4 3 2 3 4 3 3 2 2 1 2 1 3 2 5 7 9 12 15 16 15 14 13 13 12 13 13 13 14 13 12 13 13 12 11 10 9 8 8 7 6 7 7 7 6 4 4 4 4 4 5 4 4 4 5 5 5 5 5 6 7 8 7 7 8 7 6 5 4 3 3 4 5 6 5 4 3 3 3 2 2 2
4 4 5 3 3 4 5 3 4 3 4 5 5 5 3 3 3 2 2 3 3 1 1 2 1 2 1 3 3 5 8 11 14 15 16 14 13 13 12 12 12 12 13 13 13 12 12 12 11 11 10 9 9 7 7 6 6 6 6 5 4 3 3 2 3 4 4 4 4 4 4 3 4 4 5 7 6 6 7 9 8 7 6 3 3 2 2 3 4 4 4 4 3 3 2 1 1
4 3 4 3 4 4 5 4 4 3 4 5 4 4 4 5 3 2 2 2 3 2 0 1 2 2 1 2 2 6 10 13 14 15 15 14 13 13 12 12 12 12 12 13 13 12 11 11 11 11 11 10 10 8 7 5 4 4 4 3 2 2 1 1 2 3 3 2 2 3 2 2 3 3 4 5 5 5 8 9 8 7 6 4 3 3 2 3 3 3 3 3 3 2 2 1 1
3 4 4 3 6 5 6 5 3 2 5 5 4 3 4 6 2 2 3 1 3 3 1 1 0 2 1 1 2 9 12 14 15 14 15 14 13 12 12 12 12 12 12 13 13 12 11 11 11 11 11 10 9 8 7 6 4 3 3 2 2 0 0 0 1 2 2 2 3 2 2 2 2 2 2 3 4 5 7 7 6 7 6 5 5 4 3 4 4 3 3 2 2 2 2 2 2
3 4 3 5 6 6 7 6 5 3 5 6 5 2 2 5 3 2 2 2 4 4 2 1 1 2 2 1 4 11 13 14 15 15 16 15 14 13 12 11 11 11 11 12 12 12 11 11 11 10 10 10 8 7 6 6 4 2 3 1 0 1 2 1 2 2 2 3 3 3 3 2 2 2 2 2 3 4 5 5 6 6 6 6 7 6 5 6 5 3 3 3 3 2 3 2 3
3 3 3 6 6 7 7 7 6 3 4 6 5 2 1 4 4 3 3 3 4 4 3 2 2 1 1 2 7 12 13 15 16 15 16 15 14 14 12 11 11 11 11 11 12 12 11 11 11 10 10 9 8 7 5 5 4 3 4 2 1 1 2 2 2 2 1 1 2 3 3 2 2 2 2 1 1 2 3 3 5 6 6 6 6 5 5 6 5 4 3 3 3 3 3 2 3
3 3 4 6 6 6 5 6 6 4 5 6 5 2 2 3 4 3 4 3 4 4 4 4 4 3 4 6 10 13 13 15 16 15 15 14 14 14 13 11 11 11 10 11 12 13 11 11 11 10 9 9 8 6 5 5 5 4 5 4 3 2 1 1 1 2 1 1 2 3 3 3 3 3 3 3 2 1 2 3 4 5 6 7 6 5 4 4 4 4 2 2 3 3 3 1 1
2 3 4 6 5 6 5 5 5 4 5 6 5 4 3 3 3 3 3 4 5 4 4 5 6 6 6 9 11 13 14 14 14 14 14 13 12 12 12 12 12 11 11 11 11 12 12 10 11 10 9 8 8 6 5 5 5 4 4 4 3 3 2 2 2 2 2 2 2 3 4 4 4 4 4 5 5 3 3 4 3 3 3 5 7 6 4 3 4 4 3 2 2 1 1 1 1
1 2 5 6 3 4 6 5 5 5 5 5 5 4 4 4 2 2 2 4 4 3 3 3 4 6 8 10 12 13 14 13 13 13 13 13 11 11 11 11 11 10 10 10 11 11 12 11 10 10 9 9 8 7 6 6 5 5 4 4 3 3 3 3 3 3 3 3 3 4 5 5 5 4 4 4 4 4 3 3 3 2 2 2 4 4 4 4 3 2 2 1 0 1 1 0 1
0 3 4 4 1 4 6 5 6 6 5 4 4 3 3 3 2 1 2 2 2 1 1 2 2 5 8 10 12 13 13 13 13 13 12 12 11 10 10 9 9 9 9 10 10 10 11 11 10 10 9 9 9 8 7 6 6 5 5 4 3 4 3 3 4 4 3 3 4 4 5 6 6 5 4 4 4 4 4 4 4 3 2 2 2 2 2 3 2 1 1 1 1 1 1 1 1
1 4 3 3 2 4 6 5 5 4 4 4 4 3 3 3 3 3 2 3 4 3 1 1 1 3 7 9 11 12 12 12 12 12 12 12 12 11 10 9 9 9 9 9 9 9 10 11 10 10 9 10 10 8 7 6 6 6 5 5 4 4 4 4 4 4 4 4 4 5 6 6 6 6 5 5 5 5 5 5 5 4 4 3 2 2 2 2 2 1 2 2 1 1 1 1 1
1 4 5 4 5 6 7 6 4 3 4 5 4 3 2 2 2 2 3 4 4 4 3 2 2 4 7 8 11 11 10 11 12 12 11 12 13 11 9 9 8 8 8 8 9 9 9 10 10 10 10 9 9 9 8 7 7 6 6 5 4 4 4 5 5 5 5 4 5 5 6 6 6 7 6 6 6 5 5 6 6 6 5 4 3 3 2 1 2 2 3 3 3 2 2 1 1
1 5 6 5 6 8 7 6 5 5 4 4 5 5 4 3 2 2 3 4 3 4 4 4 4 5 6 6 8 8 8 9 10 10 9 9 11 11 10 9 8 7 7 8 8 9 9 9 10 11 10 10 9 9 9 7 6 6 6 5 5 5 5 5 5 5 5 5 5 5 5 6 7 7 7 6 6 6 6 7 7 6 6 5 4 2 3 2 0 2 3 4 4 3 2 2 2
4 5 6 6 7 7 7 5 5 5 4 3 4 6 5 4 2 2 3 2 2 3 3 4 4 6 6 6 6 5 7 10 9 9 9 7 8 10 11 8 8 8 7 8 8 8 8 9 10 11 10 10 9 9 8 7 7 6 6 6 6 5 6 5 6 5 6 6 5 5 6 6 7 8 7 7 7 7 7 7 7 7 7 6 5 4 2 2 2 1 2 3 3 3 3 3 3
6 6 7 7 7 7 5 5 5 4 4 2 3 4 4 5 4 2 4 3 2 2 3 3 3 4 6 6 6 4 5 9 10 9 9 8 7 9 11 9 8 7 7 8 9 9 9 10 10 10 10 9 9 9 8 7 7 7 6 6 6 6 6 6 5 6 6 6 6 6 6 7 7 8 7 7 8 8 8 7 7 7 7 7 6 6 3 1 2 1 2 2 2 3 3 3 4
8 8 8 7 6 7 4 5 6 3 4 2 2 2 3 5 3 3 5 3 2 1 2 3 2 2 4 4 7 7 5 7 11 10 8 8 8 9 12 11 10 9 8 9 9 9 9 10 10 10 10 10 10 10 9 8 8 7 7 7 7 6 7 6 6 5 5 6 6 6 6 6 6 7 7 8 8 9 9 8 8 8 8 7 7 6 4 2 2 2 2 2 2 3 3 4 4
8 7 6 7 7 6 5 6 5 3 3 2 2 2 4 4 4 5 5 3 2 2 1 2 2 2 3 3 4 7 7 9 11 12 10 9 10 10 11 11 11 11 10 9 9 9 10 10 10 10 10 10 10 10 9 9 8 7 7 7 7 6 6 6 6 5 5 6 6 6 6 6 6 6 7 8 9 10 10 10 10 9 9 8 7 7 6 4 4 3 3 3 3 4 4 5 5
7 5 2 5 5 6 8 6 6 4 3 4 3 1 4 4 5 7 5 3 3 3 2 2 2 1 2 4 4 5 8 9 10 12 13 11 12 11 10 10 11 11 9 10 11 11 10 9 10 10 9 10 10 10 9 8 8 7 7 6 6 6 6 5 5 5 5 5 5 6 6 5 6 7 8 9 10 11 11 11 10 10 10 8 7 7 6 5 5 4 4 4 4 4 5 5 6
4 2 3 4 2 4 9 8 8 6 4 5 4 2 3 5 5 6 5 4 3 3 2 2 1 2 1 3 3 4 6 8 9 11 12 12 12 12 12 11 11 11 10 10 11 11 11 10 9 9 9 10 10 10 10 9 8 7 7 6 6 5 5 5 4 4 5 5 6 8 8 8 8 9 10 11 12 12 12 11 11 12 10 9 8 8 8 7 6 6 6 5 5 5 5 6 6
3 1 3 1 3 4 10 9 9 7 6 7 5 2 3 5 6 6 6 5 4 3 1 1 1 2 1 2 3 3 4 6 8 10 11 12 12 12 13 13 13 13 12 11 11 11 12 11 9 9 9 10 10 10 10 10 8 8 7 6 5 5 5 6 6 6 5 6 7 8 10 11 10 10 11 13 13 12 11 11 11 11 11 10 10 9 9 9 8 8 8 7 7 6 6 7 7
4 2 3 3 4 1 5 9 10 7 7 8 7 4 1 4 6 6 5 5 4 3 2 2 2 2 2 2 2 3 3 5 7 8 10 11 12 12 13 14 15 14 13 12 11 12 12 11 10 9 9 10 11 11 10 10 9 8 6 6 7 7 7 8 8 8 6 7 7 8 11 13 12 12 12 13 12 11 12 13 12 13 13 12 12 12 11 11 10 9 8 8 8 7 7 8 8
3 1 3 2 4 4 1 6 10 9 8 8 8 6 2 4 7 7 7 6 5 4 3 3 2 2 2 2 2 2 3 4 5 7 10 11 11 11 12 14 15 15 15 13 12 11 11 11 10 10 10 10 12 12 10 9 8 7 7 7 9 9 8 8 8 8 7 7 8 10 13 14 14 14 12 11 10 12 15 16 16 16 18 18 16 16 15 13 13 12 10 10 9 8 8 8 8
2 2 4 3 3 4 2 2 8 11 10 8 7 7 4 4 7 8 8 8 6 5 3 2 2 2 2 2 2 2 2 3 4 6 8 9 10 11 12 13 15 15 15 14 11 10 10 9 8 9 10 10 12 12 9 8 8 8 8 8 9 9 8 7 7 9 9 9 10 12 14 15 15 13 10 10 10 12 14 15 16 17 18 18 18 19 18 16 14 14 13 12 10 9 9 9 8
6 6 5 6 5 4 3 3 6 9 9 8 8 7 5 7 8 8 9 9 7 6 4 3 3 3 2 3 2 2 2 1 2 4 6 7 8 10 12 12 13 14 14 14 13 12 10 9 7 8 9 9 10 9 8 8 9 8 8 8 8 8 7 6 7 9 10 10 11 11 12 13 14 12 10 11 12 14 17 17 17 17 16 15 16 18 18 18 16 14 13 12 11 10 9 9 9
8 8 6 6 6 3 3 2 6 7 7 6 8 8 6 7 9 9 9 9 9 7 7 6 4 4 3 3 2 2 2 1 3 4 5 6 6 8 11 12 13 14 14 14 14 12 10 9 8 7 7 8 9 8 8 9 9 9 9 8 7 7 6 6 6 7 8 9 9 9 10 9 11 11 11 13 14 15 17 18 17 17 16 14 15 16 16 17 16 14 12 10 10 11 10 9 9
8 7 7 7 5 4 3 2 5 6 5 4 6 8 8 8 8 9 10 10 10 9 8 7 6 5 4 3 3 2 2 3 3 4 5 5 6 7 10 12 13 13 13 13 13 12 10 9 8 7 7 7 8 7 7 8 9 9 8 6 5 5 5 5 5 6 7 8 9 10 10 9 10 12 11 13 13 12 13 14 14 14 13 13 14 15 15 15 15 14 13 10 10 11 10 10 9
7 6 7 6 4 4 1 5 6 6 4 2 5 7 7 8 9 10 11 11 10 10 9 8 7 6 5 4 4 3 3 3 4 5 5 6 7 7 9 10 11 12 11 11 11 10 9 8 8 7 6 7 7 6 6 7 7 6 5 4 4 4 4 4 5 6 7 8 10 11 11 10 9 10 9 9 9 9 10 12 12 12 12 12 13 13 13 13 13 14 14 12 11 10 9 9 10
7 6 7 6 6 7 2 4 5 6 4 3 4 6 6 6 8 9 11 10 8 9 9 8 7 6 6 5 4 4 4 4 5 5 5 6 8 9 8 9 10 10 10 10 10 10 9 9 8 8 6 6 6 6 5 5 4 4 3 3 3 3 3 4 5 7 7 8 9 9 9 8 8 8 8 8 8 9 9 10 11 11 11 11 11 11 12 11 12 12 13 13 12 10 9 10 10
8 8 8 8 8 9 6 1 3 5 6 5 6 6 4 6 9 9 9 9 8 9 10 9 8 7 6 5 5 5 4 4 5 6 6 6 7 8 9 9 9 9 10 10 10 10 9 8 8 7 6 6 6 5 5 4 4 4 3 3 3 2 3 4 5 6 6 5 5 6 6 6 7 8 8 9 9 9 9 9 10 10 10 10 9 10 11 10 10 11 11 11 10 10 10 9 9
9 7 5 8 10 9 7 2 3 5 5 4 5 5 1 6 10 9 9 10 10 10 11 11 10 8 7 7 7 6 5 5 5 5 6 6 7 8 8 8 8 8 8 8 9 9 9 8 9 8 6 6 5 5 5 5 5 5 4 3 3 2 2 4 4 3 3 3 4 5 4 4 6 8 8 8 8 8 9 9 10 10 10 10 9 10 10 10 9 10 9 9 9 9 10 11 10
8 2 2 6 9 9 7 5 5 6 1 2 4 6 2 4 8 10 11 12 12 12 12 13 11 10 9 8 8 7 7 6 5 5 6 6 7 9 8 8 8 8 8 8 8 9 8 8 9 8 7 6 6 5 5 5 5 5 4 2 2 2 2 2 2 2 2 2 2 2 2 2 4 5 6 5 6 7 8 8 10 10 10 9 9 9 10 9 9 9 8 8 9 8 8 10 11
5 4 3 6 7 7 7 6 6 5 3 2 5 5 5 2 6 9 11 12 12 13 13 13 12 12 11 10 9 9 8 8 7 6 6 6 7 7 8 8 7 8 9 9 9 9 8 8 8 9 7 6 6 5 5 6 5 5 4 4 3 3 2 2 2 2 2 1 1 1 1 1 2 3 3 3 5 6 6 7 9 9 9 9 9 9 10 9 9 8 7 9 10 10 9 11 12
2 4 4 5 5 6 6 6 6 3 4 4 3 3 6 2 5 8 9 10 12 13 15 15 14 14 13 11 10 10 9 9 8 8 7 7 7 7 7 8 7 8 9 10 9 9 9 8 8 9 8 6 6 6 7 7 6 6 6 6 6 4 3 3 3 2 0 1 1 1 2 3 3 3 3 4 5 5 6 7 8 9 9 9 9 9 8 8 9 9 8 10 11 11 11 12 13
2 2 3 3 4 5 4 5 4 3 5 4 0 2 6 3 5 6 5 7 9 11 13 14 15 15 14 12 12 11 10 9 8 8 8 8 7 7 7 7 7 8 8 8 9 8 9 9 8 9 9 8 8 9 8 8 7 7 6 6 6 5 4 3 2 1 0 1 2 2 3 4 4 4 4 4 5 5 6 7 7 8 8 9 9 9 8 8 9 9 10 10 10 10 11 11 12
1 3 5 4 4 3 3 4 3 4 5 2 1 2 6 5 3 4 3 4 6 8 10 12 14 16 15 13 12 12 10 9 8 8 8 8 8 7 8 8 8 8 7 8 9 8 9 10 10 10 10 9 9 9 9 9 8 6 6 5 5 4 4 2 2 1 1 1 2 2 2 3 3 4 4 4 5 6 6 6 6 7 7 8 8 8 8 8 8 8 8 9 9 10 11 11 12
4 6 6 5 4 3 4 4 4 6 3 1 1 2 6 5 1 1 2 4 5 7 10 14 17 17 16 14 13 12 11 10 9 8 8 8 8 8 8 8 8 7 7 8 8 9 9 10 10 10 10 9 9 8 8 8 7 6 5 4 4 4 3 2 2 1 1 2 2 2 2 3 3 4 5 5 5 5 5 6 6 7 7 7 7 7 8 7 7 7 7 8 9 10 11 11 12
7 7 6 6 5 3 5 4 4 5 1 2 0 2 5 4 2 3 4 4 4 5 8 13 17 18 17 16 14 12 11 11 10 9 8 8 8 8 8 8 8 7 7 7 7 7 8 8 8 8 8 8 7 7 7 6 6 5 5 4 4 3 2 2 2 2 2 2 3 3 3 3 4 5 5 5 5 5 6 6 6 7 7 7 7 7 7 8 8 8 8 8 8 9 10 11 12
8 8 6 7 5 5 7 4 4 4 1 2 1 2 4 4 2 1 2 4 3 3 6 10 15 18 17 16 15 13 12 11 10 10 9 9 8 9 9 9 8 7 7 7 7 6 7 7 8 8 8 8 7 7 6 6 6 5 5 5 4 3 2 2 3 3 3 3 3 4 4 4 5 5 5 5 4 5 6 6 7 7 8 8 8 9 8 8 9 9 9 9 9 9 9 10 12
9 8 6 6 6 6 6 3 4 4 0 2 4 3 4 3 1 3 5 5 3 4 6 8 12 16 16 15 15 14 13 12 10 10 10 10 10 10 10 9 9 8 8 8 8 8 8 8 8 8 8 8 8 8 7 7 7 6 6 4 3 2 3 3 3 3 3 4 4 4 4 5 5 5 5 5 5 6 7 7 7 8 9 9 9 10 10 10 10 10 11 11 11 10 10 11 12
7 6 6 6 6 6 5 4 4 5 3 2 3 3 4 3 3 4 4 4 5 7 8 9 13 16 16 15 15 14 13 12 11 11 11 11 11 11 11 10 10 9 10 10 10 10 9 9 9 9 9 9 8 8 8 8 7 7 5 4 3 3 3 3 4 4 4 4 4 4 5 5 5 5 5 6 6 6 7 8 9 9 9 10 10 10 11 11 11 11 12 12 12 12 12 12 13
4 5 7 4 3 6 6 4 2 4 6 2 0 4 1 3 2 2 3 4 6 8 10 11 14 17 16 14 14 13 13 12 12 12 11 11 12 12 11 11 11 10 11 11 11 11 10 10 10 10 9 9 9 8 8 7 7 6 5 3 2 2 3 3 3 4 4 4 4 5 5 5 5 6 6 6 7 7 8 9 10 10 10 10 11 11 12 12 12 13 13 13 13 13 12 13 13
4 5 5 3 2 5 5 4 3 5 7 2 0 5 3 1 1 3 6 6 7 9 11 12 14 16 15 13 13 13 13 13 13 13 12 12 13 12 12 11 11 11 11 12 12 11 11 10 10 10 10 9 9 8 8 7 6 5 4 3 2 2 3 3 3 4 4 4 5 5 5 6 6 6 6 6 7 8 8 9 9 10 10 10 11 11 11 11 11 13 13 13 14 13 13 13 13
7 4 1 3 4 5 4 5 5 5 6 4 2 4 4 3 1 3 7 8 10 11 12 13 15 16 15 14 14 14 14 14 13 13 12 11 13 13 13 12 12 12 12 13 13 12 11 10 10 9 9 9 8 8 7 7 6 5 3 3 3 3 3 4 4 4 5 5 5 5 5 6 6 6 5 6 7 8 8 9 9 10 10 10 11 10 10 10 11 12 13 13 13 12 13 13 13
9 7 5 6 5 4 3 4 5 5 6 5 3 3 1 2 2 1 4 8 12 13 13 14 16 17 15 14 15 15 14 14 13 13 12 11 13 14 14 13 13 13 13 13 13 12 12 11 10 9 9 8 8 8 7 7 6 5 3 3 3 3 4 4 5 5 5 5 5 5 6 5 5 5 5 6 7 8 9 9 10 10 11 11 11 10 10 11 11 12 12 13 13 12 13 13 13
9 8 8 7 4 3 4 5 5 5 6 4 4 5 1 0 4 3 3 6 11 13 13 12 14 16 16 15 15 15 14 14 13 13 12 12 14 15 15 14 13 13 13 14 14 13 12 12 11 10 9 9 8 8 7 7 6 5 4 4 4 4 4 5 5 5 6 5 5 6 5 4 4 5 5 6 8 9 9 9 10 11 11 11 11 11 11 11 11 12 12 12 13 13 13 14 14
10 9 9 9 7 5 5 6 5 5 6 5 4 5 1 1 2 1 4 5 9 13 13 12 14 16 16 15 15 15 15 15 14 14 13 13 14 15 15 15 14 14 14 14 14 13 13 12 12 11 10 9 8 8 7 7 7 6 5 5 4 4 5 5 5 5 6 6 6 6 5 5 5 6 6 7 8 9 8 9 10 11 11 11 11 12 12 12 12 12 12 13 13 13 13 14 14
Wind_Direction
173 181 188 193 194 273 248 237 255 210 233 245 206 108 76 31 30 100 125 138 133 121 107 135 143 128 93 106 104 55 37 58 42 58 89 69 134 145 142 140 140 139 142 143 144 146 143 143 144 145 147 144 139 135 133 128 123 119 113 108 105 105 110 112 105 100 99 93 90 88 87 86 87 88 87 89 93 93 91 92 94 99 106 112 117 120 129 141 149 154 154 154 164 166 165 173 179
165 171 174 177 169 257 256 189 260 214 218 223 109 61 40 84 62 76 115 123 89 110 136 146 138 108 39 79 106 82 64 60 54 68 80 109 130 137 140 142 142 139 140 143 145 146 146 147 146 150 150 145 140 134 133 131 127 121 114 110 104 107 109 107 103 98 95 90 88 86 85 84 85 86 86 88 92 93 91 90 90 96 103 108 110 114 122 128 136 142 146 154 168 169 170 174 178
162 165 170 174 176 224 257 213 275 293 255 220 83 57 334 91 85 68 74 73 77 118 140 144 143 122 154 146 126 64 74 72 69 73 98 131 135 138 143 143 141 138 139 143 148 149 148 151 150 153 155 148 142 138 136 135 131 124 118 114 108 112 112 103 97 94 91 88 88 89 88 85 85 86 86 87 90 90 87 89 93 98 98 102 105 108 113 113 119 126 136 145 160 167 175 178 182
159 164 176 188 202 210 244 239 320 327 322 24 68 54 7 35 99 86 68 77 98 135 143 154 150 79 195 137 105 71 85 82 63 58 112 137 138 141 145 142 140 138 140 144 149 149 149 153 151 152 156 150 144 142 141 140 135 127 118 114 109 110 113 105 96 96 94 91 88 90 92 89 86 85 87 88 88 86 83 82 82 88 90 94 100 104 107 109 110 112 119 127 142 154 170 177 180
152 162 180 207 249 235 260 271 1 0 11 11 52 72 343 332 101 97 77 88 144 150 148 165 151 99 80 84 55 64 71 87 75 65 107 122 132 142 145 143 141 140 141 144 146 148 149 151 149 149 152 148 144 143 144 146 140 129 117 112 109 104 109 105 96 96 94 90 82 79 83 84 86 84 85 85 84 82 76 70 66 72 74 76 82 87 91 99 102 103 106 106 117 134 154 166 168
154 152 176 221 282 313 277 45 42 52 43 9 60 107 253 276 87 101 93 84 109 136 144 169 164 151 134 73 58 41 41 53 94 87 111 126 137 144 146 145 142 140 141 143 144 147 149 149 147 147 149 148 145 143 146 149 144 132 119 113 110 102 102 103 95 92 91 86 80 73 66 69 77 79 81 81 78 75 70 62 55 56 55 56 57 65 74 82 88 92 96 97 101 104 123 153 168
170 165 183 227 238 240 325 61 51 59 61 24 72 136 190 193 89 105 111 106 118 121 146 167 185 164 111 96 111 52 42 28 24 96 119 134 142 146 148 146 141 141 142 142 144 147 151 150 147 148 150 148 145 144 148 148 142 132 122 114 108 100 96 102 97 92 93 87 82 74 64 64 67 69 72 73 72 69 65 58 52 50 48 49 49 55 60 63 64 72 77 76 78 65 74 129 189
187 217 239 254 251 178 26 60 62 53 67 57 93 107 128 183 178 123 122 112 121 124 146 156 197 202 90 113 138 60 53 52 56 104 125 137 143 149 150 146 142 142 143 142 143 146 151 150 149 151 151 148 145 145 148 145 139 133 125 115 106 96 92 100 98 93 94 87 81 74 67 64 62 59 60 60 60 59 56 51 47 48 46 49 53 49 51 59 54 53 57 53 55 53 66 51 285
198 229 267 261 288 81 46 60 73 59 73 68 82 87 80 149 175 128 122 111 105 120 121 142 223 239 117 131 93 86 74 76 102 123 136 142 145 152 150 149 145 144 145 143 143 146 150 151 151 153 153 149 147 146 146 144 140 137 127 117 106 93 86 93 97 95 90 81 76 73 64 60 58 52 52 52 52 52 51 47 41 43 45 49 55 47 43 52 51 46 46 46 44 41 57 27 22
223 220 285 279 303 49 49 60 71 67 73 61 72 84 79 105 161 81 104 116 111 125 108 281 225 227 126 127 92 104 83 103 129 136 145 145 148 154 151 151 147 146 146 142 144 148 152 153 153 154 155 151 149 147 146 145 141 136 127 119 105 93 83 84 94 93 84 78 72 73 65 58 57 51 51 51 57 61 59 56 48 43 42 44 51 49 39 37 42 44 42 43 34 20 42 51 73
261 209 259 309 359 32 34 55 71 75 77 77 89 88 79 94 155 115 87 116 121 136 123 266 192 165 146 138 92 104 109 133 143 144 150 149 152 154 149 151 147 148 148 143 145 150 153 156 157 157 157 154 152 148 148 146 140 136 127 120 105 95 81 75 88 87 81 77 71 70 64 59 58 57 57 54 62 67 64 66 63 55 46 39 43 43 29 25 27 24 28 26 13 14 36 59 82
303 324 273 350 18 23 22 45 66 78 92 99 95 86 93 98 125 122 105 121 141 146 121 332 140 175 186 157 102 119 138 146 148 148 150 151 154 154 149 150 149 150 149 146 146 150 154 157 161 161 159 157 156 153 152 149 142 137 129 122 104 96 82 67 77 84 80 73 69 67 63 64 64 60 62 57 49 48 49 55 62 68 56 38 39 38 20 16 13 4 15 9 3 15 32 57 74
317 339 314 9 22 16 19 39 68 87 105 88 81 81 99 104 82 106 119 116 143 155 117 358 24 251 225 112 107 137 142 141 149 151 151 153 153 154 151 148 149 150 151 149 148 152 154 156 161 164 163 161 164 162 159 157 148 142 135 127 110 91 76 61 68 82 78 68 65 65 65 69 70 56 52 55 45 42 45 46 50 64 63 40 37 45 25 11 7 2 8 3 9 23 12 39 72
319 340 316 5 48 27 18 28 70 71 92 82 78 86 91 78 66 86 126 123 124 108 65 338 290 252 154 124 161 158 140 140 151 152 152 153 152 157 153 148 149 151 154 156 155 153 155 158 160 165 168 166 167 167 165 165 155 148 141 133 116 87 78 55 63 82 68 57 55 51 57 59 74 55 36 45 42 43 49 49 48 54 61 45 31 48 40 15 16 10 3 7 21 32 8 0 68
314 329 292 346 44 39 25 22 41 46 81 87 79 88 95 80 89 110 54 95 102 56 68 207 258 277 187 184 173 144 139 143 151 152 152 151 153 157 152 149 150 152 158 161 160 156 158 161 162 165 171 171 167 166 165 170 166 154 145 135 114 77 88 44 51 91 73 51 47 33 39 43 66 55 33 36 26 35 49 47 45 53 58 60 56 37 22 1 16 27 20 21 17 29 21 12 74
304 301 279 10 37 35 30 20 16 45 75 84 91 99 112 95 93 98 54 61 112 106 125 174 236 327 304 277 124 133 140 144 150 153 151 149 153 156 153 153 150 153 161 165 165 160 161 164 166 168 171 174 170 168 162 164 180 168 150 138 122 92 265 306 344 84 70 31 26 0 359 13 14 11 39 40 16 25 38 33 36 55 53 57 67 48 22 358 0 14 21 34 6 14 28 16 35
279 275 303 33 36 33 24 14 13 40 81 94 112 132 126 104 89 96 122 147 123 132 124 73 80 345 334 296 132 137 140 143 151 155 154 153 156 158 158 159 152 155 163 170 171 164 165 169 171 170 172 175 172 171 162 160 179 185 163 159 117 333 313 320 346 18 30 9 6 329 324 343 337 347 34 49 39 30 24 12 17 41 46 45 50 44 36 15 5 359 356 27 9 2 42 31 6
276 292 4 34 31 33 16 16 28 36 100 108 119 140 117 120 122 134 163 132 120 154 145 140 158 80 66 124 139 143 146 148 155 160 161 162 164 165 165 165 161 160 164 171 176 172 171 175 179 175 173 176 175 173 166 163 165 172 175 184 203 275 312 337 357 356 3 345 335 309 309 325 322 349 6 19 69 52 12 351 345 3 24 32 29 21 24 12 4 6 351 11 8 12 49 45 341
285 318 23 40 35 48 24 20 38 41 95 116 126 130 103 111 122 160 199 141 148 181 166 184 187 164 138 142 149 151 154 156 160 164 168 171 169 169 168 171 169 164 166 171 176 179 179 182 186 183 178 179 181 180 178 178 168 174 184 182 186 192 238 283 301 297 318 316 312 307 303 307 312 325 313 310 338 18 352 336 325 334 354 6 3 351 357 351 345 1 4 359 9 34 52 51 354
289 313 25 51 51 73 56 33 50 65 104 126 123 124 118 110 129 180 203 160 177 207 190 202 201 178 156 154 160 160 161 161 162 167 174 176 172 170 170 175 175 171 173 173 174 181 186 188 190 188 185 184 187 190 190 191 184 185 190 186 192 198 217 243 261 276 289 279 288 291 287 296 304 307 305 316 335 345 331 319 311 310 316 339 344 328 314 317 329 346 4 10 12 49 69 64 81
312 340 23 53 55 71 65 52 75 97 112 117 117 129 113 106 140 171 208 190 177 211 222 229 218 181 162 161 168 167 164 163 166 172 175 177 176 175 175 177 177 175 176 177 176 182 189 190 192 193 191 191 192 196 199 196 192 192 196 200 206 213 222 240 255 268 273 273 274 276 280 288 291 289 296 306 312 311 307 298 296 294 244 286 330 315 300 307 312 327 338 0 300 236 183 137 88
123 51 35 55 35 65 77 73 88 108 121 118 119 114 97 111 123 102 278 287 92 99 238 255 243 184 168 168 172 171 168 166 171 175 175 178 181 182 181 177 176 176 177 180 180 183 191 193 193 195 195 195 194 199 203 199 198 201 206 210 221 231 238 248 260 265 267 275 271 275 279 282 285 281 283 288 293 298 300 302 305 321 318 304 327 327 319 288 264 284 252 221 256 241 214 185 146
234 74 78 75 60 80 90 89 95 120 131 112 101 97 112 132 101 63 14 23 51 61 81 206 209 175 170 175 180 176 171 169 170 172 175 182 185 188 187 181 179 179 179 182 183 183 191 196 194 194 195 195 196 201 204 203 205 208 210 213 224 238 248 257 264 266 268 278 279 276 279 281 284 283 284 287 289 288 292 306 309 314 320 331 357 354 329 246 221 213 199 188 216 221 216 202 186
291 84 101 84 84 99 97 97 109 116 103 98 110 122 122 112 96 83 60 58 52 58 75 89 101 147 170 183 190 180 175 172 167 168 178 188 188 190 193 191 187 179 182 188 188 189 191 196 196 196 196 197 200 202 207 211 211 211 211 215 224 235 250 260 265 271 274 277 279 278 280 282 283 284 287 286 285 287 292 299 302 305 311 325 347 357 353 285 202 191 189 179 192 210 225 206 192
110 101 117 106 100 103 99 102 113 108 103 123 137 122 93 73 99 108 74 69 70 75 87 94 112 149 170 195 195 179 182 171 160 167 180 193 188 187 193 196 197 189 192 199 199 199 196 196 198 201 201 200 203 204 209 212 211 215 216 220 225 229 242 256 261 268 272 270 272 276 278 282 284 285 287 289 288 288 292 293 293 298 305 312 319 335 3 357 275 194 193 185 187 197 212 213 192
106 118 129 126 115 110 113 116 117 115 124 158 149 129 116 121 159 124 87 80 98 106 110 108 128 154 161 192 198 196 200 167 158 181 176 180 182 185 192 188 195 198 198 206 208 207 203 202 203 206 205 202 205 205 207 206 208 215 216 222 225 228 236 248 258 265 268 268 270 271 275 282 285 286 287 290 288 286 288 289 290 293 297 300 306 314 344 6 343 237 211 198 193 194 198 206 198
113 131 125 124 122 120 129 126 124 124 128 180 165 131 130 159 193 129 105 127 138 135 123 114 131 147 154 178 173 184 218 160 160 192 173 168 184 188 195 188 191 197 199 207 208 208 206 209 209 209 208 204 206 207 207 207 208 213 217 225 226 228 236 240 251 259 264 269 273 277 281 284 285 283 285 287 286 286 285 285 290 293 295 296 298 302 306 334 327 293 252 227 206 209 207 207 201
130 135 122 126 129 122 140 141 140 151 138 184 236 153 170 183 184 99 111 140 161 163 123 132 155 138 147 170 155 154 203 176 169 195 181 176 192 188 193 194 194 195 202 206 203 205 205 209 211 209 209 204 207 209 209 211 211 215 219 226 228 229 234 235 240 248 255 261 267 274 278 280 282 282 283 286 286 286 286 287 289 290 293 294 292 293 293 292 286 265 252 247 228 229 225 220 214
147 155 132 137 151 141 155 154 151 186 144 152 257 203 182 175 142 120 131 146 167 200 170 165 172 144 140 155 165 153 177 189 185 203 202 196 199 191 189 189 189 191 196 201 201 207 207 209 210 208 209 206 210 213 213 215 213 217 221 224 228 228 231 232 234 240 250 256 260 263 269 276 284 286 285 286 287 286 287 288 288 287 287 287 286 286 283 272 265 255 240 242 238 237 237 230 226
167 190 197 160 180 164 163 163 165 189 134 149 243 237 138 132 135 136 145 169 189 207 195 189 157 144 147 147 181 165 165 186 195 207 210 209 207 200 196 187 187 189 188 194 201 209 209 208 209 208 208 207 212 216 215 217 214 216 221 222 224 227 231 233 236 245 255 262 266 264 267 272 274 281 287 289 288 288 287 287 288 288 284 281 279 276 271 262 263 263 252 248 251 249 248 239 236
181 191 226 214 280 149 164 170 173 181 144 169 243 299 106 129 148 147 154 177 205 234 194 196 155 144 176 152 184 184 173 187 195 204 209 211 209 205 203 197 195 194 192 196 200 207 211 207 206 204 205 207 210 215 216 215 216 218 219 224 228 228 232 236 245 262 269 271 277 277 274 268 261 267 278 285 287 287 285 283 285 288 288 285 280 273 267 265 261 262 259 253 259 262 256 247 244
190 214 232 240 5 142 171 176 182 187 166 189 244 318 93 134 155 156 167 178 196 246 229 202 206 157 187 182 191 197 182 186 190 200 207 208 210 208 206 204 203 200 198 203 203 207 213 212 209 203 203 205 208 212 215 215 218 224 228 232 232 228 239 252 260 267 270 270 277 281 277 272 267 268 275 279 283 285 283 281 280 283 287 287 283 274 266 266 261 258 255 251 264 270 262 256 250
189 246 322 7 6 81 166 172 189 200 181 196 228 274 21 133 159 161 176 187 187 229 238 218 227 178 192 202 196 195 180 182 187 196 205 210 213 211 207 205 206 205 203 206 209 210 214 214 211 209 206 205 211 211 208 217 223 227 232 232 232 238 252 264 267 267 265 266 271 271 273 275 274 274 275 274 274 274 274 275 275 277 277 277 280 275 267 266 264 261 254 249 260 264 259 260 256
175 234 326 345 347 344 114 163 184 197 202 208 215 241 297 129 158 170 184 193 192 211 221 216 230 202 201 209 204 195 186 195 192 190 199 208 211 209 206 204 205 206 206 208 211 213 216 217 213 215 213 209 216 212 203 215 221 219 226 232 241 251 259 265 266 265 262 261 264 267 274 278 276 278 278 272 268 267 270 274 277 279 277 277 278 275 270 267 264 262 258 251 251 252 254 258 256
339 327 321 323 341 325 346 95 166 189 210 219 213 225 233 175 169 176 185 191 198 205 210 219 231 226 211 208 214 192 195 206 184 175 186 196 202 205 206 204 204 204 205 208 212 216 217 216 215 219 218 213 217 213 204 213 214 213 224 230 242 253 256 262 265 264 262 261 266 271 274 272 269 273 274 269 268 270 272 275 276 277 277 278 276 270 269 268 263 258 255 253 248 245 249 253 251
322 312 312 320 326 319 5 61 154 187 213 218 222 232 223 200 189 183 184 188 199 200 200 215 224 229 222 210 206 182 196 189 130 148 164 175 188 200 205 203 202 200 202 207 210 214 212 209 213 222 222 217 218 212 204 212 211 212 221 225 236 246 250 258 264 265 265 266 270 270 266 262 260 263 266 268 270 271 273 273 274 276 275 274 271 269 266 264 264 260 253 249 247 246 244 244 243
301 297 295 302 309 334 32 94 163 190 225 225 222 234 228 211 202 192 185 186 195 198 199 206 206 215 225 219 199 181 182 111 102 129 142 155 167 190 204 204 202 198 197 204 206 206 207 205 208 214 215 214 217 211 203 209 212 216 224 229 236 241 247 256 259 263 265 264 263 260 259 259 260 264 266 269 271 272 273 274 275 276 274 268 267 270 267 263 264 264 257 245 242 245 242 238 233
282 288 294 299 310 340 27 113 156 184 234 237 211 231 234 217 210 195 187 190 195 196 198 202 200 200 211 222 208 185 157 124 130 133 135 149 153 171 192 197 200 197 192 197 202 200 199 200 200 199 199 202 208 209 208 213 220 226 231 232 233 235 243 252 253 257 259 258 260 262 264 265 267 270 270 268 269 270 270 271 273 273 273 270 267 266 265 264 262 259 259 252 245 241 237 238 223
275 280 287 292 321 336 85 139 150 179 234 248 194 232 239 214 212 198 191 198 197 192 195 198 197 193 197 209 204 184 167 151 148 141 139 146 145 158 180 187 191 190 186 191 198 195 189 191 194 192 193 195 200 205 212 219 221 228 232 222 221 233 242 247 250 253 257 262 267 268 265 266 269 267 265 264 264 263 263 265 269 272 274 273 271 266 261 260 255 254 255 251 250 244 234 237 224
262 272 277 288 321 326 327 134 155 190 240 285 233 244 250 210 205 199 198 205 199 186 188 192 195 195 196 199 196 187 177 167 157 147 143 145 145 153 168 179 184 184 183 186 191 191 190 194 194 193 194 193 195 196 196 201 199 203 212 198 193 222 237 247 261 264 264 264 266 264 258 258 260 256 255 256 253 257 262 264 268 273 276 274 273 269 261 257 253 252 250 242 243 245 238 236 226
257 260 264 288 312 316 324 81 170 215 224 246 256 255 240 198 196 195 194 200 196 184 183 188 193 194 191 191 193 193 188 176 166 156 149 149 149 150 157 168 177 183 183 184 187 190 195 199 196 194 194 193 193 189 181 179 183 193 205 203 200 220 243 253 263 264 260 255 251 251 248 245 252 256 258 258 256 259 264 267 268 272 276 273 269 266 261 260 257 252 253 249 245 246 250 250 235
264 261 261 294 308 309 310 267 234 257 215 193 257 281 204 181 195 191 180 187 193 186 186 188 189 191 188 189 193 190 189 186 175 162 155 155 152 148 152 159 165 172 173 175 178 183 190 192 189 188 187 188 185 180 186 190 194 206 222 233 231 229 239 241 239 239 244 240 239 253 258 245 252 261 260 258 261 263 262 262 264 270 273 269 263 258 258 259 258 252 251 254 252 247 252 260 253
266 297 3 305 301 297 293 265 256 286 323 141 251 292 325 180 188 181 175 186 190 185 191 189 183 189 191 189 193 189 186 186 180 168 161 160 157 152 155 163 166 163 159 160 165 171 180 181 179 177 176 179 175 175 189 197 203 213 222 232 223 186 192 204 201 227 247 241 238 255 263 229 241 260 257 250 254 258 258 259 263 267 268 266 259 254 255 255 255 255 251 251 252 248 249 256 259
267 51 7 301 298 291 287 269 260 290 325 216 218 271 300 250 169 169 174 185 189 186 192 190 181 187 193 189 190 190 187 182 177 176 173 168 163 159 160 167 172 162 156 161 165 168 171 173 173 166 166 173 173 177 186 188 190 189 177 164 161 164 156 149 164 198 226 232 252 265 269 241 231 250 255 245 244 243 245 252 257 261 262 263 256 249 252 253 254 255 249 246 245 241 242 247 256
284 46 325 298 299 285 278 268 262 281 291 256 195 229 285 303 128 152 176 186 192 194 193 190 182 183 190 189 187 190 187 179 177 179 179 174 169 169 164 165 170 163 160 162 164 165 164 163 164 156 154 163 166 170 173 171 167 162 156 149 147 150 148 149 158 171 215 294 304 296 292 286 270 261 262 258 253 246 241 242 245 248 251 255 253 251 252 251 253 251 243 242 239 235 236 240 249
19 47 273 254 252 258 251 254 258 244 262 283 158 209 284 320 110 137 198 205 199 200 195 190 183 181 186 186 184 187 183 178 182 178 175 178 179 177 169 164 167 164 160 158 157 162 162 158 157 150 148 156 160 157 153 149 148 145 141 140 141 141 144 143 139 144 57 309 285 275 278 282 279 271 263 262 266 263 258 254 253 254 254 253 252 252 250 245 245 244 240 237 235 236 240 242 246
87 219 232 216 220 230 240 245 250 249 253 306 34 243 281 300 104 130 210 204 182 186 187 186 184 180 182 184 182 182 181 179 181 176 172 176 177 178 171 165 165 159 154 154 152 153 155 153 151 147 146 148 149 144 140 139 138 133 129 132 134 132 136 143 143 154 165 249 254 256 266 275 279 278 272 270 271 267 265 267 266 269 271 267 262 260 256 249 243 245 242 234 231 237 243 248 249
214 235 230 227 225 212 229 215 217 257 266 81 67 268 271 283 16 128 172 136 144 166 176 182 185 182 179 181 180 176 179 180 176 175 173 172 174 175 170 161 158 157 158 157 151 147 146 146 145 141 138 138 138 136 134 134 131 127 127 129 132 133 142 160 171 187 220 245 247 249 262 271 279 281 273 266 267 268 268 270 271 273 277 279 279 278 274 264 257 256 252 242 237 235 239 247 250
220 233 227 237 240 224 236 222 222 260 304 99 287 297 273 279 319 263 205 156 152 165 177 181 182 182 178 176 174 171 177 179 174 176 174 173 175 170 164 157 153 157 159 153 147 145 142 141 140 137 135 135 133 131 132 134 131 128 131 134 138 146 162 193 224 240 241 251 259 255 260 266 273 276 273 270 272 273 268 267 271 273 275 280 284 286 285 277 269 264 260 256 251 242 237 239 244
216 222 225 237 243 244 245 237 246 265 79 104 221 251 264 271 308 298 155 137 145 182 194 185 180 179 175 171 169 166 173 177 173 174 173 172 170 164 159 156 156 159 156 148 145 144 141 141 141 138 137 137 135 137 140 142 141 137 138 144 148 161 192 216 237 249 249 255 261 262 270 276 274 275 281 284 283 278 272 268 272 273 274 280 282 281 281 276 271 266 262 261 259 253 247 243 244
213 224 235 243 250 260 264 269 276 280 343 135 179 211 297 313 145 115 101 107 122 173 183 173 172 173 168 166 167 166 169 172 171 170 168 165 164 163 160 159 161 160 155 153 151 150 149 147 145 144 145 145 144 144 147 148 148 144 144 150 158 178 202 218 231 244 249 252 259 266 271 277 280 284 290 288 283 279 278 277 276 274 273 278 282 281 279 275 271 268 265 262 260 257 253 252 252
203 215 233 241 250 258 274 294 302 309 293 206 185 245 328 27 139 145 126 132 137 153 163 161 165 166 166 167 168 167 166 167 169 165 161 162 164 165 164 163 164 161 158 158 156 156 153 147 147 149 150 152 152 151 151 151 150 150 153 159 171 191 206 215 224 235 241 247 259 267 267 273 282 286 286 284 281 280 282 284 281 277 277 277 278 280 279 277 274 272 270 266 263 260 255 254 255
174 208 230 231 274 265 264 266 270 288 274 240 179 278 292 89 142 156 138 146 145 154 162 161 162 164 167 169 167 166 163 164 167 161 159 164 167 168 167 168 166 163 163 160 157 157 153 149 150 152 154 157 160 160 157 156 158 160 165 173 187 201 213 228 235 236 238 242 251 258 263 272 279 279 282 286 287 287 286 287 286 285 284 280 278 278 277 276 275 274 272 269 268 265 262 259 257
202 216 210 161 230 264 266 266 249 256 265 251 279 283 299 24 278 171 156 158 157 165 164 158 161 165 168 167 166 163 160 164 165 158 161 167 169 170 169 171 168 165 165 160 159 160 155 153 153 153 159 161 164 169 165 166 171 173 176 188 208 216 222 237 238 232 235 238 243 249 259 270 276 277 282 291 294 292 290 289 289 289 287 283 281 280 278 279 278 276 273 270 269 268 267 265 260
240 265 222 190 232 234 219 250 264 263 272 278 263 281 306 328 323 160 178 175 166 170 166 162 166 169 169 166 164 163 161 166 165 159 164 168 171 172 171 172 169 165 167 164 163 164 159 160 159 159 165 166 170 177 174 179 183 183 193 204 213 224 230 232 227 228 233 238 247 259 262 267 274 274 275 287 291 293 294 294 292 290 288 286 283 281 281 283 281 279 276 272 268 265 265 265 264
233 258 237 226 255 263 226 241 264 270 276 286 287 283 292 329 325 215 184 176 173 174 169 170 172 170 169 166 164 165 165 168 166 162 167 170 172 174 172 174 170 167 172 170 168 168 163 164 167 169 173 174 180 186 186 192 194 193 210 217 215 225 232 229 225 230 240 246 254 263 263 264 270 273 277 287 290 290 291 291 290 289 287 287 287 287 287 285 281 279 278 277 276 274 272 270 269
202 222 219 215 228 262 262 244 243 268 281 283 289 290 312 59 281 257 149 160 177 177 171 173 173 169 169 166 165 165 165 168 168 166 170 170 172 174 173 174 171 170 177 175 172 173 168 170 176 179 181 183 188 195 197 200 200 203 217 221 220 224 230 231 229 234 246 255 257 258 264 266 270 278 287 293 293 291 289 289 290 291 289 289 288 288 286 283 281 279 278 278 278 277 275 273 272
204 211 213 215 218 230 250 243 226 244 273 279 290 288 285 117 251 186 123 155 179 177 173 172 172 169 167 165 165 164 165 168 169 169 171 170 172 176 174 174 172 172 181 182 177 177 174 176 183 186 187 189 192 198 201 201 201 206 214 218 222 225 230 234 238 247 256 263 262 259 263 269 274 282 289 292 295 297 297 297 295 292 290 289 286 284 283 283 281 281 280 278 276 274 272 270 269